Simultaneous Nadir Overpasses (SNOs) Predictions

Prediction of SNOs between AQUA and METOP-B Satellite Orbit:

Table of predicted SNOs for the next 14.0 days since TLE Epoch: 2/11/2017
Index Date (AQUA) Time (AQUA) Lat,Lon (AQUA) SZA (AQUA ) Date (METOP-B) Time (METOP-B) Lat,Lon (METOP-B) SZA (METOP-B ) Distance(km) Time Diff (sec)
1 02/12/2017 06:14:33 73.73, 80.73 87.45 02/12/2017 06:13:56 73.72, 80.83 87.44 3.59 37
2 02/12/2017 07:03:59 -73.77,-111.71 92.53 02/12/2017 07:04:36 -73.79,-111.66 92.51 3.27 37
3 02/15/2017 01:48:50 73.72, 147.18 86.49 02/15/2017 01:48:19 73.70, 147.21 86.48 2.18 31
4 02/15/2017 02:38:16 -73.75, -45.24 93.49 02/15/2017 02:38:59 -73.78, -45.28 93.47 3.29 43
5 02/17/2017 21:23:07 73.72,-146.38 85.51 02/17/2017 21:22:41 73.74,-146.31 85.53 3.03 26
6 02/17/2017 22:12:33 -73.80, 21.09 94.43 02/17/2017 22:13:21 -73.77, 21.09 94.47 3.54 48
7 02/20/2017 16:07:43 -73.08, 113.77 96.19 02/20/2017 16:06:37 -73.02, 111.16 96.11 84.95 66
8 02/20/2017 16:57:23 73.73, -79.96 84.50 02/20/2017 16:57:03 73.72, -79.94 84.50 0.69 20
9 02/20/2017 17:46:50 -73.80, 87.53 95.43 02/20/2017 17:47:43 -73.80, 87.57 95.44 1.47 53
10 02/23/2017 11:42:04 -73.29, 179.77 96.99 02/23/2017 11:40:55 -73.25, 178.07 96.93 54.56 69
11 02/23/2017 12:31:40 73.74, -13.54 83.49 02/23/2017 12:31:25 73.75, -13.47 83.50 2.72 15
12 02/23/2017 13:21:07 -73.81, 153.95 96.46 02/23/2017 13:22:06 -73.78, 153.93 96.49 2.72 59




NCC Satellite Simultaneous Nadir Overpasses (SNOs) Prediction Service
